Time,TemperatureF,DewpointF,PressureIn,WindDirection,WindDirectionDegrees,WindSpeedMPH,WindSpeedGustMPH,Humidity,HourlyPrecipIn,Conditions,Clouds,dailyrainin,SolarRadiationWatts/m^2,SoftwareType,DateUTC
2013-01-18 00:02:00,36.0,3.0,-100.00,WNW,283,6.0,9.0,24,0.00,,,0.00,1.000000,,2013-01-18 07:02:00,
2013-01-18 00:12:00,36.0,3.0,-100.00,WNW,283,6.0,9.0,24,0.00,,,0.00,1.000000,,2013-01-18 07:12:00,
2013-01-18 00:22:00,36.0,3.0,-100.00,WNW,283,6.0,9.0,24,0.00,,,0.00,1.000000,,2013-01-18 07:22:00,
2013-01-18 00:52:00,39.0,2.0,-100.00,WNW,288,7.0,13.0,21,0.00,,,0.00,1.000000,,2013-01-18 07:52:00,
2013-01-18 01:02:00,39.0,2.0,-100.00,WNW,288,7.0,13.0,21,0.00,,,0.00,1.000000,,2013-01-18 08:02:00,
2013-01-18 01:12:00,39.0,2.0,-100.00,WNW,288,7.0,13.0,21,0.00,,,0.00,1.000000,,2013-01-18 08:12:00,
2013-01-18 01:22:00,39.0,2.0,-100.00,WNW,288,7.0,13.0,21,0.00,,,0.00,1.000000,,2013-01-18 08:22:00,
2013-01-18 01:53:00,39.0,1.0,-100.00,WNW,288,6.0,16.0,20,0.00,,,0.00,1.000000,,2013-01-18 08:53:00,
2013-01-18 02:02:00,39.0,1.0,-100.00,WNW,288,6.0,16.0,20,0.00,,,0.00,1.000000,,2013-01-18 09:02:00,
2013-01-18 02:12:00,39.0,1.0,-100.00,WNW,288,6.0,16.0,20,0.00,,,0.00,1.000000,,2013-01-18 09:12:00,
2013-01-18 02:22:00,39.0,1.0,-100.00,WNW,288,6.0,16.0,20,0.00,,,0.00,1.000000,,2013-01-18 09:22:00,
2013-01-18 02:53:00,36.0,1.0,-100.00,WNW,290,2.0,11.0,22,0.00,,,0.00,1.000000,,2013-01-18 09:53:00,
2013-01-18 03:02:00,36.0,1.0,-100.00,WNW,290,2.0,11.0,22,0.00,,,0.00,1.000000,,2013-01-18 10:02:00,
2013-01-18 03:12:00,36.0,1.0,-100.00,WNW,290,2.0,11.0,22,0.00,,,0.00,1.000000,,2013-01-18 10:12:00,
2013-01-18 03:22:00,36.0,1.0,-100.00,WNW,290,2.0,11.0,22,0.00,,,0.00,1.000000,,2013-01-18 10:22:00,
2013-01-18 03:53:00,33.0,1.0,-100.00,WNW,283,4.0,8.0,25,0.00,,,0.00,1.000000,,2013-01-18 10:53:00,
2013-01-18 04:02:00,33.0,1.0,-100.00,WNW,283,4.0,8.0,25,0.00,,,0.00,1.000000,,2013-01-18 11:02:00,
2013-01-18 04:12:00,33.0,1.0,-100.00,WNW,283,4.0,8.0,25,0.00,,,0.00,1.000000,,2013-01-18 11:12:00,
2013-01-18 04:23:00,33.0,1.0,-100.00,WNW,283,4.0,8.0,25,0.00,,,0.00,1.000000,,2013-01-18 11:23:00,
2013-01-18 04:53:00,33.0,-1.0,-100.00,WNW,294,4.0,7.0,23,0.00,,,0.00,1.000000,,2013-01-18 11:53:00,
2013-01-18 05:03:00,33.0,-1.0,-100.00,WNW,294,4.0,7.0,23,0.00,,,0.00,1.000000,,2013-01-18 12:03:00,
2013-01-18 05:12:00,33.0,-1.0,-100.00,WNW,294,4.0,7.0,23,0.00,,,0.00,1.000000,,2013-01-18 12:12:00,
2013-01-18 05:22:00,33.0,-1.0,-100.00,WNW,294,4.0,7.0,23,0.00,,,0.00,1.000000,,2013-01-18 12:22:00,
2013-01-18 05:53:00,31.0,-2.0,-100.00,WNW,288,4.0,8.0,23,0.00,,,0.00,1.000000,,2013-01-18 12:53:00,
2013-01-18 06:03:00,31.0,-2.0,-100.00,WNW,288,4.0,8.0,23,0.00,,,0.00,1.000000,,2013-01-18 13:03:00,
2013-01-18 06:12:00,31.0,-2.0,-100.00,WNW,288,4.0,8.0,23,0.00,,,0.00,1.000000,,2013-01-18 13:12:00,
2013-01-18 06:23:00,31.0,-2.0,-100.00,WNW,288,4.0,8.0,23,0.00,,,0.00,1.000000,,2013-01-18 13:23:00,
2013-01-18 06:53:00,33.0,-4.0,-100.00,WNW,302,3.0,6.0,20,0.00,,,0.00,1.000000,,2013-01-18 13:53:00,
2013-01-18 07:03:00,33.0,-4.0,-100.00,WNW,302,3.0,6.0,20,0.00,,,0.00,1.000000,,2013-01-18 14:03:00,
2013-01-18 07:12:00,33.0,-4.0,-100.00,WNW,302,3.0,6.0,20,0.00,,,0.00,1.000000,,2013-01-18 14:12:00,
2013-01-18 07:22:00,33.0,-4.0,-100.00,WNW,302,3.0,6.0,20,0.00,,,0.00,1.000000,,2013-01-18 14:22:00,
2013-01-18 07:53:00,32.0,-3.0,-100.00,WNW,296,3.0,7.0,21,0.00,,,0.00,1.000000,,2013-01-18 14:53:00,
2013-01-18 08:03:00,32.0,-3.0,-100.00,WNW,296,3.0,7.0,21,0.00,,,0.00,1.000000,,2013-01-18 15:03:00,
2013-01-18 08:12:00,32.0,-3.0,-100.00,WNW,296,3.0,7.0,21,0.00,,,0.00,1.000000,,2013-01-18 15:12:00,
2013-01-18 08:23:00,32.0,-3.0,-100.00,WNW,296,3.0,7.0,21,0.00,,,0.00,1.000000,,2013-01-18 15:23:00,
2013-01-18 08:54:00,36.0,-1.0,-100.00,West,270,2.0,7.0,20,0.00,,,0.00,20.000000,,2013-01-18 15:54:00,
2013-01-18 09:03:00,36.0,-1.0,-100.00,West,270,2.0,7.0,20,0.00,,,0.00,20.000000,,2013-01-18 16:03:00,
2013-01-18 09:12:00,36.0,-1.0,-100.00,West,270,2.0,7.0,20,0.00,,,0.00,20.000000,,2013-01-18 16:12:00,
2013-01-18 09:23:00,36.0,-1.0,-100.00,West,270,2.0,7.0,20,0.00,,,0.00,20.000000,,2013-01-18 16:23:00,
2013-01-18 09:53:00,46.0,1.0,-100.00,SW,217,1.0,5.0,15,0.00,,,0.00,146.000000,,2013-01-18 16:53:00,
2013-01-18 10:03:00,46.0,1.0,-100.00,SW,217,1.0,5.0,15,0.00,,,0.00,146.000000,,2013-01-18 17:03:00,
2013-01-18 10:13:00,46.0,1.0,-100.00,SW,217,1.0,5.0,15,0.00,,,0.00,146.000000,,2013-01-18 17:13:00,
2013-01-18 10:23:00,46.0,1.0,-100.00,SW,217,1.0,5.0,15,0.00,,,0.00,146.000000,,2013-01-18 17:23:00,
2013-01-18 10:53:00,51.0,0.0,-100.00,ESE,111,3.0,6.0,12,0.00,,,0.00,311.000000,,2013-01-18 17:53:00,
2013-01-18 11:03:00,51.0,0.0,-100.00,ESE,111,3.0,6.0,12,0.00,,,0.00,311.000000,,2013-01-18 18:03:00,
2013-01-18 11:13:00,51.0,0.0,-100.00,ESE,111,3.0,6.0,12,0.00,,,0.00,311.000000,,2013-01-18 18:13:00,
2013-01-18 11:23:00,51.0,0.0,-100.00,ESE,111,3.0,6.0,12,0.00,,,0.00,311.000000,,2013-01-18 18:23:00,
2013-01-18 11:53:00,54.0,1.0,-100.00,SE,128,4.0,7.0,11,0.00,,,0.00,432.000000,,2013-01-18 18:53:00,
2013-01-18 12:03:00,54.0,1.0,-100.00,SE,128,4.0,7.0,11,0.00,,,0.00,432.000000,,2013-01-18 19:03:00,
2013-01-18 12:12:00,54.0,1.0,-100.00,SE,128,4.0,7.0,11,0.00,,,0.00,432.000000,,2013-01-18 19:12:00,
2013-01-18 12:22:00,54.0,1.0,-100.00,SE,128,4.0,7.0,11,0.00,,,0.00,432.000000,,2013-01-18 19:22:00,
2013-01-18 12:53:00,55.0,-1.0,-100.00,ESE,122,5.0,9.0,10,0.00,,,0.00,494.000000,,2013-01-18 19:53:00,
2013-01-18 13:03:00,55.0,-1.0,-100.00,ESE,122,5.0,9.0,10,0.00,,,0.00,494.000000,,2013-01-18 20:03:00,
2013-01-18 13:13:00,55.0,-1.0,-100.00,ESE,122,5.0,9.0,10,0.00,,,0.00,494.000000,,2013-01-18 20:13:00,
2013-01-18 13:23:00,55.0,-1.0,-100.00,ESE,122,5.0,9.0,10,0.00,,,0.00,494.000000,,2013-01-18 20:23:00,
2013-01-18 13:53:00,57.0,1.0,-100.00,WSW,250,4.0,14.0,10,0.00,,,0.00,541.000000,,2013-01-18 20:53:00,
2013-01-18 14:03:00,57.0,1.0,-100.00,WSW,250,4.0,14.0,10,0.00,,,0.00,541.000000,,2013-01-18 21:03:00,
2013-01-18 14:13:00,57.0,1.0,-100.00,WSW,250,4.0,14.0,10,0.00,,,0.00,541.000000,,2013-01-18 21:13:00,
2013-01-18 14:22:00,57.0,1.0,-100.00,WSW,250,4.0,14.0,10,0.00,,,0.00,541.000000,,2013-01-18 21:22:00,
2013-01-18 14:53:00,57.0,-1.0,-100.00,WSW,247,4.0,13.0,9,0.00,,,0.00,504.000000,,2013-01-18 21:53:00,
2013-01-18 15:03:00,57.0,-1.0,-100.00,WSW,247,4.0,13.0,9,0.00,,,0.00,504.000000,,2013-01-18 22:03:00,
2013-01-18 15:12:00,57.0,-1.0,-100.00,WSW,247,4.0,13.0,9,0.00,,,0.00,504.000000,,2013-01-18 22:12:00,
2013-01-18 15:22:00,57.0,-1.0,-100.00,WSW,247,4.0,13.0,9,0.00,,,0.00,504.000000,,2013-01-18 22:22:00,
2013-01-18 15:53:00,55.0,-1.0,-100.00,East,92,4.0,8.0,10,0.00,,,0.00,404.000000,,2013-01-18 22:53:00,
2013-01-18 16:03:00,55.0,-1.0,-100.00,East,92,4.0,8.0,10,0.00,,,0.00,404.000000,,2013-01-18 23:03:00,
2013-01-18 16:12:00,55.0,-1.0,-100.00,East,92,4.0,8.0,10,0.00,,,0.00,404.000000,,2013-01-18 23:12:00,
2013-01-18 16:22:00,55.0,-1.0,-100.00,East,92,4.0,8.0,10,0.00,,,0.00,404.000000,,2013-01-18 23:22:00,
2013-01-18 16:53:00,52.0,-3.0,-100.00,West,265,7.0,13.0,10,0.00,,,0.00,260.000000,,2013-01-18 23:53:00,
2013-01-18 17:02:00,52.0,-3.0,-100.00,West,265,7.0,13.0,10,0.00,,,0.00,260.000000,,2013-01-19 00:02:00,
2013-01-18 17:12:00,52.0,-3.0,-100.00,West,265,7.0,13.0,10,0.00,,,0.00,260.000000,,2013-01-19 00:12:00,
2013-01-18 17:22:00,52.0,-3.0,-100.00,West,265,7.0,13.0,10,0.00,,,0.00,260.000000,,2013-01-19 00:22:00,
2013-01-18 17:53:00,42.0,-1.0,-100.00,West,277,3.0,15.0,16,0.00,,,0.00,39.000000,,2013-01-19 00:53:00,
2013-01-18 18:02:00,42.0,-1.0,-100.00,West,277,3.0,15.0,16,0.00,,,0.00,39.000000,,2013-01-19 01:02:00,
2013-01-18 18:12:00,42.0,-1.0,-100.00,West,277,3.0,15.0,16,0.00,,,0.00,39.000000,,2013-01-19 01:12:00,
2013-01-18 18:22:00,42.0,-1.0,-100.00,West,277,3.0,15.0,16,0.00,,,0.00,39.000000,,2013-01-19 01:22:00,
2013-01-18 18:53:00,40.0,1.0,-100.00,WNW,286,4.0,11.0,19,0.00,,,0.00,2.000000,,2013-01-19 01:53:00,
2013-01-18 19:02:00,40.0,1.0,-100.00,WNW,286,4.0,11.0,19,0.00,,,0.00,2.000000,,2013-01-19 02:02:00,
2013-01-18 19:12:00,40.0,1.0,-100.00,WNW,286,4.0,11.0,19,0.00,,,0.00,2.000000,,2013-01-19 02:12:00,
2013-01-18 19:22:00,40.0,1.0,-100.00,WNW,286,4.0,11.0,19,0.00,,,0.00,2.000000,,2013-01-19 02:22:00,
2013-01-18 19:53:00,38.0,1.0,-100.00,WNW,286,7.0,12.0,20,0.00,,,0.00,1.000000,,2013-01-19 02:53:00,
2013-01-18 20:03:00,38.0,1.0,-100.00,WNW,286,7.0,12.0,20,0.00,,,0.00,1.000000,,2013-01-19 03:03:00,
2013-01-18 20:12:00,38.0,1.0,-100.00,WNW,286,7.0,12.0,20,0.00,,,0.00,1.000000,,2013-01-19 03:12:00,
2013-01-18 20:22:00,38.0,1.0,-100.00,WNW,286,7.0,12.0,20,0.00,,,0.00,1.000000,,2013-01-19 03:22:00,
2013-01-18 20:53:00,39.0,0.0,-100.00,West,281,5.0,13.0,19,0.00,,,0.00,1.000000,,2013-01-19 03:53:00,
2013-01-18 21:02:00,39.0,0.0,-100.00,West,281,5.0,13.0,19,0.00,,,0.00,1.000000,,2013-01-19 04:02:00,
2013-01-18 21:12:00,39.0,0.0,-100.00,West,281,5.0,13.0,19,0.00,,,0.00,1.000000,,2013-01-19 04:12:00,
2013-01-18 21:22:00,39.0,0.0,-100.00,West,281,5.0,13.0,19,0.00,,,0.00,1.000000,,2013-01-19 04:22:00,
2013-01-18 21:53:00,38.0,1.0,-100.00,West,274,4.0,11.0,20,0.00,,,0.00,1.000000,,2013-01-19 04:53:00,
2013-01-18 22:03:00,38.0,1.0,-100.00,West,274,4.0,11.0,20,0.00,,,0.00,1.000000,,2013-01-19 05:03:00,
2013-01-18 22:12:00,38.0,1.0,-100.00,West,274,4.0,11.0,20,0.00,,,0.00,1.000000,,2013-01-19 05:12:00,
2013-01-18 22:23:00,38.0,1.0,-100.00,West,274,4.0,11.0,20,0.00,,,0.00,1.000000,,2013-01-19 05:23:00,
2013-01-18 22:53:00,42.0,0.0,-100.00,West,264,8.0,16.0,17,0.00,,,0.00,1.000000,,2013-01-19 05:53:00,
2013-01-18 23:02:00,42.0,0.0,-100.00,West,264,8.0,16.0,17,0.00,,,0.00,1.000000,,2013-01-19 06:02:00,
2013-01-18 23:12:00,42.0,0.0,-100.00,West,264,8.0,16.0,17,0.00,,,0.00,1.000000,,2013-01-19 06:12:00,
2013-01-18 23:22:00,42.0,0.0,-100.00,West,264,8.0,16.0,17,0.00,,,0.00,1.000000,,2013-01-19 06:22:00,
2013-01-18 23:53:00,42.0,0.0,-100.00,West,272,9.0,19.0,17,0.00,,,0.00,1.000000,,2013-01-19 06:53:00,